RH
91 91 87 85 84 80 78 81 82 79 81 80 80 82 85 92 92 98 92 74 85 96 92 90 90 90 85 83 82 83 85 85 82 82 89 81 77 78 70 66 61 58 55 53 50 49 52 51 51 51 50 55 62 65 64 60 60 62 60 57 56 54
90 90 88 87 89 84 84 88 85 82 84 82 82 83 86 94 94 97 92 78 89 95 89 89 89 89 86 83 84 87 85 85 81 76 84 89 86 82 71 65 61 58 54 51 49 49 51 50 49 49 51 59 64 64 64 63 62 60 59 56 55 54
90 90 89 88 89 84 86 90 85 84 84 82 86 87 89 94 94 96 92 82 89 93 89 91 92 89 89 89 87 90 89 84 76 64 70 88 95 80 63 62 60 57 54 49 49 49 50 50 50 53 57 63 65 64 65 66 67 63 59 57 56 54
91 91 90 90 90 84 87 90 86 85 84 85 88 93 92 91 92 96 95 85 86 91 90 93 97 95 95 97 93 91 93 88 73 58 56 75 91 76 55 58 59 56 54 50 50 50 49 51 54 59 62 64 65 65 66 66 70 69 62 58 57 56
94 93 92 93 91 87 87 90 88 85 86 86 87 93 92 90 93 93 93 86 83 89 92 96 99 97 94 96 96 93 94 91 76 60 55 64 73 63 52 55 56 55 54 51 50 48 49 53 58 61 61 63 64 65 65 65 68 71 68 62 59 59
98 96 95 93 92 90 88 87 88 86 85 86 85 91 92 92 93 91 92 86 81 89 95 98 96 92 88 89 95 96 94 91 79 65 59 63 62 51 49 54 54 54 53 51 50 47 49 54 57 58 58 60 62 62 63 61 63 67 71 68 63 61
100 99 98 95 94 94 89 83 84 85 83 83 85 89 92 94 94 92 92 86 80 88 96 96 92 90 88 89 94 94 93 91 84 71 60 61 62 48 45 54 54 52 51 49 47 45 47 51 51 53 56 58 59 59 58 58 59 62 67 71 68 63
100 101 100 97 96 95 91 84 84 87 83 81 84 87 91 94 96 95 93 86 78 86 95 95 91 90 91 94 95 94 93 91 88 79 62 57 60 49 44 52 53 51 49 47 45 43 43 42 41 42 49 54 54 55 55 57 58 60 64 68 70 65
100 101 100 98 97 95 94 88 86 87 84 85 86 85 90 94 95 94 92 85 78 84 92 92 90 89 91 93 96 96 92 89 89 84 65 54 57 52 47 51 52 51 48 46 43 39 37 35 36 38 45 51 53 55 55 56 57 59 62 64 67 65
99 99 99 97 96 96 95 90 88 87 85 88 86 83 90 95 93 92 89 83 78 81 84 86 86 86 89 90 92 95 90 86 89 87 67 51 52 52 50 50 50 49 47 45 42 42 45 48 51 54 57 57 55 55 55 55 56 58 60 61 63 64
95 95 93 91 92 95 95 91 90 89 85 87 85 81 89 95 94 91 88 82 77 76 76 79 83 85 88 88 89 92 90 87 89 86 68 51 50 50 50 50 52 56 58 58 58 60 63 63 63 62 61 58 53 52 52 54 55 56 59 60 61 62
94 92 89 85 87 92 93 90 89 88 85 85 84 81 87 93 94 91 88 84 79 74 71 74 83 86 87 86 85 88 90 88 87 83 67 53 51 51 52 56 60 65 68 69 67 66 67 65 61 56 55 53 50 51 53 54 55 54 57 58 60 61
95 94 89 84 89 92 92 90 87 87 85 85 85 83 85 89 91 91 89 87 82 77 74 78 85 85 86 87 85 85 86 85 84 82 72 62 59 57 58 62 65 69 70 70 67 65 67 65 58 52 52 52 51 53 55 55 54 53 55 58 60 61
95 96 92 89 93 94 93 91 88 87 88 88 87 85 84 86 90 91 92 89 84 82 84 87 89 88 87 88 88 86 84 82 82 82 79 74 71 69 69 70 70 71 70 69 68 66 66 64 59 56 56 56 56 57 57 57 55 55 56 58 60 62
95 96 96 95 94 93 92 92 90 89 90 91 88 87 86 87 91 92 93 91 87 88 90 90 90 88 86 86 87 85 82 81 80 81 81 77 76 75 73 71 70 70 69 68 67 66 66 64 62 61 60 60 60 59 59 59 58 57 58 59 60 62
97 98 98 96 94 92 91 90 91 89 89 92 90 89 88 87 90 93 93 91 91 94 93 92 90 87 85 83 82 82 81 79 79 81 79 75 73 71 69 67 65 67 67 67 67 65 66 66 65 64 64 64 63 63 61 60 60 59 60 60 62 63
99 99 99 97 96 94 92 90 90 89 89 90 91 91 91 90 92 93 90 87 90 94 94 94 92 88 85 83 80 80 81 79 81 83 78 71 69 67 67 64 62 64 65 67 68 66 67 67 68 69 68 66 64 62 60 59 60 60 61 62 63 64
100 100 100 99 97 95 94 92 91 90 91 91 91 93 94 94 96 95 92 89 91 92 93 95 94 90 87 83 80 78 78 79 82 85 79 71 69 69 67 63 61 62 65 69 69 67 67 69 71 72 71 68 66 66 64 62 59 59 62 64 65 65
100 100 100 100 99 98 97 96 95 95 95 94 95 96 97 97 97 98 98 97 96 94 94 94 94 91 86 83 81 78 76 77 81 84 81 75 70 69 67 62 60 62 66 70 69 67 68 71 73 74 72 72 72 72 71 70 68 66 65 66 67 67
100 101 100 100 100 100 100 100 100 99 99 99 98 99 99 99 99 99 100 99 98 96 96 95 93 90 86 83 82 80 77 78 80 82 82 78 73 70 66 62 60 62 68 71 69 67 68 70 72 74 75 75 75 74 73 74 76 77 72 66 67 70
101 100 100 101 100 100 101 100 101 100 101 100 99 100 100 100 100 99 99 100 99 98 96 95 93 90 86 83 82 81 79 80 81 81 82 80 77 72 67 64 63 65 69 69 68 67 67 70 74 76 76 75 73 71 73 74 75 79 78 72 70 75
100 100 100 101 100 101 100 100 101 100 100 100 99 99 100 101 100 100 100 100 99 98 94 92 91 90 86 83 83 82 79 82 84 84 83 82 79 75 70 68 68 68 68 67 66 67 68 71 77 80 82 84 79 74 70 68 70 73 78 80 80 82
100 101 100 100 101 100 100 100 100 100 100 100 99 98 99 100 100 101 101 99 98 97 93 90 90 90 88 84 83 81 78 80 86 88 87 85 82 77 72 69 68 67 66 64 65 68 70 71 75 79 85 90 91 89 80 71 71 69 70 76 78 80
101 100 100 100 101 100 100 101 100 101 101 100 100 100 100 101 100 100 99 99 99 97 93 89 88 89 89 86 82 80 76 77 85 90 88 87 84 80 75 70 67 66 64 64 65 69 71 72 73 74 82 93 98 99 91 83 82 74 68 72 74 78
100 100 101 100 100 101 100 100 100 100 101 100 100 101 100 100 101 100 99 99 99 98 94 89 88 89 88 86 82 79 76 76 85 89 87 84 81 78 78 75 70 67 66 66 66 68 70 73 75 73 78 90 93 90 90 92 88 74 65 69 74 77
101 100 101 100 100 101 100 101 101 100 101 101 100 100 101 100 100 99 99 98 97 98 97 93 91 91 90 87 82 79 78 81 85 86 85 83 79 75 76 78 76 72 71 72 71 71 71 73 77 78 77 81 81 80 85 89 88 81 72 70 73 75
101 100 100 101 100 100 101 100 100 100 100 100 100 100 100 100 98 98 99 99 99 99 100 99 97 96 94 87 82 80 82 85 86 82 81 84 82 76 74 77 81 80 80 81 78 74 75 74 77 82 82 82 82 83 86 85 86 89 86 79 74 71
101 101 100 101 100 100 101 100 100 101 100 100 101 100 100 100 99 98 99 100 101 100 100 101 100 99 97 89 83 82 84 86 84 80 80 84 84 81 78 80 85 87 86 87 84 79 78 76 77 80 82 84 85 86 90 88 84 85 89 92 85 77
101 101 100 101 100 100 100 100 101 100 100 101 100 100 100 100 100 97 96 98 100 100 100 101 100 100 99 93 87 84 85 85 81 79 81 84 86 85 85 85 86 88 89 89 89 86 84 80 78 79 79 83 83 84 92 94 91 91 94 98 95 91
101 100 101 101 100 101 100 100 101 100 101 101 100 101 100 100 100 98 96 97 97 97 98 100 100 100 99 95 91 88 86 84 81 81 83 86 88 87 87 87 86 87 89 91 91 90 89 87 86 84 82 83 82 85 96 100 99 99 100 99 96 98
101 100 100 101 100 101 100 100 101 100 100 101 100 101 100 100 101 100 100 99 98 97 98 101 100 100 100 96 92 88 84 83 82 84 86 87 89 88 87 87 87 89 91 94 96 94 92 91 92 91 89 88 85 85 91 94 94 95 99 101 99 99
100 101 100 100 100 100 101 100 101 101 101 101 101 101 100 101 100 100 101 100 100 100 100 101 97 97 100 96 91 87 83 84 85 86 87 86 87 89 89 88 90 92 93 95 98 97 94 92 92 93 92 91 90 89 88 87 86 85 90 95 96 97
100 101 100 100 100 100 101 100 100 100 100 100 100 100 100 100 100 100 100 100 101 100 101 101 93 90 95 92 87 86 84 83 84 85 86 85 86 89 90 90 91 93 94 96 97 95 92 91 91 92 92 93 93 93 91 89 86 84 86 90 93 95
100 101 100 100 100 100 101 100 101 101 100 101 100 101 101 100 101 100 100 101 101 100 101 100 91 85 87 87 84 84 83 82 81 83 84 84 87 90 91 91 91 93 95 96 95 93 92 91 91 92 93 94 94 93 92 92 90 89 89 90 92 91
100 101 100 101 100 101 101 100 101 100 100 101 100 100 100 100 101 100 100 100 100 99 100 99 93 85 84 84 82 82 82 82 82 84 84 83 87 91 91 91 91 93 95 96 95 94 93 92 91 92 93 93 93 92 92 93 93 92 92 93 93 88
100 100 100 101 100 100 101 100 100 101 101 101 101 101 101 101 100 100 99 98 97 96 95 96 94 88 85 84 83 82 82 84 84 83 83 82 85 88 87 89 91 92 94 94 94 93 93 92 90 89 91 93 93 92 92 94 93 93 94 96 98 92
100 101 100 100 101 100 100 100 100 100 100 100 100 100 100 101 100 100 98 96 96 96 94 93 93 89 84 81 82 84 83 84 82 79 80 79 80 83 84 86 89 89 89 91 94 95 94 95 93 90 91 94 95 93 93 92 90 92 95 96 100 97
Wind_Speed
17 17 17 17 17 16 15 14 15 14 14 13 13 12 12 13 13 13 12 12 13 13 14 13 12 11 11 11 10 10 9 7 7 8 8 7 8 9 9 8 7 7 7 7 6 6 5 5 4 3 1 1 1 3 6 6 4 1 2 5 6 6
18 17 17 18 18 17 16 16 16 15 15 14 14 13 13 13 13 13 12 12 12 13 14 14 13 13 12 11 11 10 9 7 6 7 8 7 8 9 10 10 8 7 7 7 6 6 5 5 4 3 1 1 2 3 4 5 4 2 1 3 5 5
20 19 19 19 19 18 18 17 16 16 15 15 14 14 13 13 14 13 12 12 13 14 15 14 14 14 12 11 9 9 8 6 5 6 8 8 8 10 12 11 9 8 7 7 6 6 5 5 4 3 1 1 2 2 4 4 3 2 2 3 4 5
21 21 21 20 20 18 18 17 17 16 15 15 15 14 14 14 14 14 13 14 15 14 15 14 13 12 10 9 8 7 7 6 5 6 7 9 10 11 13 13 10 9 8 7 6 6 5 5 4 3 1 1 2 3 5 6 5 3 3 4 4 5
22 23 22 22 21 20 19 18 17 17 16 16 16 15 14 14 15 16 15 15 16 15 15 14 12 10 8 7 7 7 6 6 5 5 7 9 11 13 13 13 12 10 8 8 7 6 5 5 4 3 2 2 3 4 6 7 7 5 3 4 5 6
24 23 23 23 22 21 20 19 18 17 17 16 16 15 14 15 16 17 16 16 17 16 15 13 11 11 9 7 7 7 8 8 6 5 6 8 10 12 14 14 12 10 9 8 7 6 5 5 4 3 4 4 5 6 7 9 9 8 6 5 5 6
25 24 23 23 22 21 21 20 19 18 18 17 16 15 15 16 17 17 17 17 17 16 14 12 12 11 10 9 9 9 9 9 7 5 6 6 7 11 13 14 12 11 9 8 7 6 6 5 5 5 5 6 7 8 9 10 11 10 9 7 6 6
25 24 23 23 23 22 22 20 19 18 18 18 17 16 16 17 18 18 18 17 17 16 14 12 12 11 10 10 11 11 9 9 8 6 6 5 6 10 13 13 12 11 9 8 8 7 7 7 7 7 7 7 8 9 9 10 11 10 10 8 6 6
25 25 24 24 23 23 23 21 20 20 19 18 17 17 17 18 18 18 18 17 17 16 14 12 12 12 11 12 12 11 10 10 10 7 6 6 6 9 11 12 12 10 9 9 9 8 8 8 8 8 9 10 10 10 10 11 11 10 9 9 6 6
26 25 25 24 24 24 23 22 21 20 19 18 18 18 17 18 18 19 18 17 16 15 14 12 12 13 13 13 13 12 12 11 11 9 7 6 6 8 9 10 10 9 9 9 8 8 7 8 8 9 10 11 11 10 10 10 11 10 9 8 6 6
27 25 25 25 25 24 24 23 22 21 20 19 19 18 17 18 18 18 18 16 16 15 13 12 12 13 13 13 13 13 13 12 12 10 7 7 7 8 9 9 9 8 7 7 6 6 6 8 9 10 11 12 11 9 9 9 10 10 10 8 7 6
28 25 24 26 25 25 25 23 22 22 20 20 19 18 17 18 19 19 18 16 15 14 13 13 13 13 13 13 13 13 13 12 11 9 8 8 8 8 9 9 8 7 6 6 6 5 6 8 7 6 7 8 8 7 7 7 8 8 9 8 7 6
29 27 26 26 25 26 26 24 23 22 21 20 19 18 18 19 19 19 18 16 15 14 14 13 13 13 12 12 12 12 13 11 10 9 8 8 8 8 8 9 8 8 7 6 5 4 5 5 3 2 1 2 3 4 5 6 6 6 6 8 8 7
29 29 28 27 26 26 26 25 23 22 21 20 20 19 18 19 20 20 19 17 16 15 14 12 12 13 12 12 11 12 12 11 10 9 8 9 8 8 9 9 8 8 7 6 5 3 3 3 2 2 1 0 2 3 5 6 6 5 5 7 7 8
30 30 29 28 28 27 27 26 24 22 21 20 20 20 19 19 20 20 20 19 17 16 14 13 12 12 12 12 11 12 12 11 9 9 9 10 10 10 10 10 9 9 7 5 4 3 3 2 2 1 1 2 3 4 6 6 5 5 5 6 7 8
30 31 31 30 29 28 27 26 24 23 21 21 20 21 21 20 20 20 21 20 18 16 15 14 13 12 12 12 11 12 12 10 8 9 9 10 10 10 9 9 9 9 8 6 4 4 5 4 4 4 4 3 3 4 5 5 5 5 6 7 7 8
29 31 31 31 30 28 27 26 25 23 22 22 21 21 21 20 20 21 21 21 20 17 16 15 14 13 12 11 11 11 11 9 8 8 7 8 9 9 8 8 8 9 8 6 5 6 7 7 7 6 5 3 3 3 4 5 5 6 7 7 7 8
27 29 30 31 30 29 27 25 25 24 23 22 21 22 21 20 20 20 21 22 21 19 17 17 16 15 13 11 10 10 10 10 10 8 7 7 8 8 8 9 9 9 8 7 8 8 8 8 8 6 4 2 2 3 4 5 6 6 7 7 7 8
24 26 27 28 28 28 26 25 24 23 23 22 22 22 21 21 20 20 20 21 21 19 18 18 18 17 15 12 11 11 12 12 12 10 8 7 8 9 10 11 10 10 9 8 7 6 6 7 6 5 4 2 3 4 5 6 6 6 7 7 8 8
24 25 25 25 25 25 25 24 23 22 22 21 21 22 22 21 21 21 20 19 19 17 17 18 19 19 17 15 14 13 13 14 14 13 11 10 9 11 12 12 12 11 11 10 7 5 5 5 5 5 4 4 5 6 6 7 8 7 7 7 8 8
24 24 25 25 25 25 25 24 23 22 22 21 20 20 20 20 21 21 20 19 18 16 16 17 19 20 20 18 17 15 14 15 15 16 14 12 11 11 11 12 12 12 13 12 8 7 6 5 5 4 4 6 7 8 8 9 9 9 8 8 8 8
24 24 25 25 26 26 26 25 23 23 23 21 19 18 18 20 20 20 19 18 17 15 15 16 19 21 21 20 18 16 15 14 15 16 16 14 12 11 10 10 11 13 13 11 8 7 7 6 4 3 2 4 6 7 7 8 9 9 9 9 8 8
23 24 25 25 25 25 25 25 23 22 22 21 19 19 19 18 18 18 18 18 17 16 15 16 18 21 22 21 20 18 17 15 15 16 16 15 14 11 10 9 11 12 11 9 8 8 7 7 5 2 0 1 3 3 4 4 6 7 8 8 9 8
22 23 24 24 24 23 22 22 21 20 20 19 17 18 18 18 17 17 17 18 18 17 16 17 19 21 22 21 21 20 18 17 16 16 15 14 13 12 11 11 11 11 11 9 9 8 8 9 8 5 1 1 1 1 2 3 5 6 5 5 7 7
21 21 22 23 22 21 20 19 18 16 15 16 16 16 18 18 17 17 17 17 18 17 17 17 19 21 21 21 20 20 19 18 17 16 15 14 13 13 12 12 11 12 12 11 10 9 9 10 10 9 5 2 1 1 1 1 4 4 4 4 5 4
20 19 20 21 21 20 19 18 17 16 14 15 16 16 18 18 18 19 18 18 18 18 17 18 20 21 21 20 19 19 19 18 17 17 16 14 14 14 13 13 14 13 12 11 10 10 10 11 11 12 10 7 5 3 2 0 1 2 4 5 3 4
19 19 19 20 21 20 19 18 18 17 16 15 15 15 17 17 18 18 17 17 17 17 18 19 20 21 20 19 18 18 18 18 17 16 16 15 14 14 14 14 14 14 13 12 11 11 11 11 11 11 11 11 8 5 3 1 1 2 3 3 3 5
20 20 19 19 20 21 20 19 18 17 16 15 14 14 15 16 15 15 15 16 16 17 18 19 20 20 20 19 19 18 18 17 17 17 16 16 15 15 14 14 14 15 15 13 13 12 11 11 11 10 10 10 10 9 6 4 4 4 1 1 4 4
21 19 18 18 19 20 19 18 18 17 16 16 15 13 13 14 14 14 15 15 16 17 18 18 18 19 19 20 20 19 18 17 17 17 17 16 15 15 15 14 15 16 16 15 13 12 12 12 12 11 10 10 11 10 7 5 6 6 2 1 2 2
21 19 18 17 17 18 19 18 18 18 17 16 14 13 13 14 14 15 15 15 16 17 18 19 18 18 19 20 20 19 18 18 18 17 18 17 16 16 15 15 15 16 16 15 13 13 12 11 11 12 12 13 13 9 5 5 7 7 4 3 3 3
20 20 19 18 18 18 19 19 19 19 18 16 14 14 14 15 15 16 17 17 17 18 19 18 18 17 18 18 19 19 18 18 18 18 18 18 17 16 16 15 15 16 15 14 13 13 12 10 10 12 13 15 15 12 9 8 8 9 7 5 3 3
23 23 22 21 20 20 20 20 20 20 19 18 16 15 15 16 16 17 17 18 18 18 17 16 16 17 18 19 19 19 19 19 18 18 18 18 17 17 16 16 16 16 15 14 14 13 11 10 11 12 13 14 14 13 13 11 9 8 8 7 5 2
26 26 26 24 22 21 22 21 21 21 20 19 18 17 16 16 16 17 17 17 18 18 17 16 15 17 19 19 19 20 20 19 18 19 18 18 17 17 16 16 16 16 15 14 13 12 11 10 10 12 12 12 12 12 12 11 9 9 8 8 7 4
27 27 26 25 23 22 22 22 22 22 21 19 18 18 18 18 17 18 18 17 18 18 18 17 16 16 17 18 19 20 19 18 18 19 18 18 18 16 16 16 16 16 15 14 12 11 10 9 9 10 11 11 12 12 11 10 10 10 9 9 8 6
24 24 23 23 22 21 21 22 22 22 21 20 19 18 18 18 18 18 18 17 17 17 17 17 16 15 16 17 18 18 18 17 17 17 17 18 18 17 15 15 15 15 14 13 12 11 9 8 8 9 10 11 11 10 10 9 10 10 11 10 9 7
14 16 18 17 18 19 19 20 21 21 20 19 17 17 18 18 18 17 16 16 16 16 16 17 17 16 15 16 16 16 17 17 15 15 16 16 16 16 15 15 15 14 13 12 11 10 9 8 8 8 9 9 10 10 8 8 9 10 10 10 9 7
8 10 13 14 15 16 17 18 18 19 19 18 17 17 17 18 18 17 16 15 14 15 16 16 16 17 15 15 16 16 17 16 14 15 16 15 15 15 14 14 14 13 12 11 10 10 8 8 8 9 9 9 9 8 7 7 9 10 10 10 9 8
Wind_Direction
193 191 191 187 185 184 183 188 192 196 197 202 202 205 210 207 204 196 192 196 195 191 188 188 189 196 196 191 192 189 184 188 193 193 200 205 201 205 210 204 192 175 169 169 164 161 154 155 158 159 173 347 30 33 22 28 31 5 244 243 245 245
197 196 195 192 190 186 184 188 194 197 197 203 204 208 210 206 205 196 191 199 201 198 193 189 190 196 198 194 195 192 189 191 196 203 204 207 208 211 213 210 200 186 177 174 169 163 160 156 163 180 218 5 47 41 20 30 32 4 257 238 243 245
199 199 198 197 195 191 189 190 195 197 198 201 203 208 209 206 205 196 190 201 207 205 200 195 195 198 196 197 198 195 193 193 198 213 213 210 216 217 214 211 203 195 185 180 178 175 172 167 172 191 185 41 36 20 1 10 19 343 278 251 249 250
202 202 200 200 199 195 194 194 195 197 199 201 203 208 209 207 204 198 193 204 211 208 207 203 202 202 195 195 203 200 194 197 205 216 217 213 220 221 213 210 206 201 194 190 192 191 188 181 180 194 200 18 356 354 347 346 350 338 286 268 262 257
204 204 203 202 200 197 196 198 197 197 200 202 206 208 209 207 204 202 197 206 213 210 209 206 206 209 202 201 209 206 202 213 218 216 216 218 224 221 212 209 208 206 204 203 206 205 201 193 191 216 269 307 321 328 332 331 331 330 301 276 268 263
204 205 206 205 202 198 199 201 198 198 201 204 208 209 207 206 205 205 200 208 215 211 210 206 209 213 208 211 218 217 217 226 232 230 228 229 229 220 211 209 210 211 213 215 218 219 214 212 216 240 276 295 306 313 320 322 323 323 312 290 272 265
205 205 207 209 205 202 203 204 200 200 203 205 208 208 208 205 204 204 203 211 215 213 211 206 214 220 207 209 225 226 227 237 242 244 244 244 232 215 208 210 213 217 220 226 230 231 230 235 246 257 272 286 298 306 311 314 315 314 311 301 276 265
206 206 207 209 208 207 207 206 202 202 205 208 209 208 209 206 204 203 204 212 215 214 211 206 217 226 213 212 226 229 231 245 249 247 247 247 230 209 205 209 216 221 227 236 243 246 250 255 264 272 277 284 292 298 302 304 306 305 305 302 277 259
207 208 209 210 209 209 210 208 205 204 206 208 209 209 208 208 208 207 208 214 215 215 213 209 217 225 222 221 226 230 232 242 249 250 242 236 222 208 206 212 219 226 237 249 258 264 271 274 276 280 281 282 283 287 292 293 294 294 298 299 276 253
208 210 212 211 210 211 212 210 207 207 207 207 211 212 209 211 212 211 213 214 215 217 217 215 218 224 227 228 230 231 231 236 244 248 240 230 217 210 211 216 224 233 245 255 265 276 286 287 283 280 276 272 272 275 281 284 285 284 287 290 273 252
210 211 212 212 212 212 213 213 210 210 210 209 213 215 212 214 215 216 216 215 216 220 223 221 221 226 229 232 233 232 231 233 241 244 240 229 219 217 215 218 226 235 247 259 273 287 291 289 285 276 266 260 260 267 278 283 282 279 278 277 265 255
212 211 211 212 213 214 214 215 213 213 213 213 216 217 214 217 220 221 219 216 219 222 225 223 221 227 232 234 235 234 235 236 240 243 240 234 228 227 226 228 234 243 259 273 282 286 286 292 296 278 256 247 249 263 283 288 283 280 274 264 256 252
211 212 211 212 214 214 215 216 216 216 216 216 218 219 216 218 222 224 221 218 220 223 223 222 221 227 232 237 239 239 241 241 242 244 243 243 241 240 242 246 251 263 274 282 285 278 283 307 341 337 258 222 240 267 296 304 298 291 270 255 250 249
209 211 212 212 213 214 215 217 218 217 218 218 219 222 220 219 222 224 223 220 220 221 221 221 223 227 232 239 242 242 243 241 241 244 248 250 253 254 257 261 265 273 276 280 286 269 273 322 3 1 17 124 243 274 299 309 307 301 276 259 255 251
208 210 211 211 212 214 216 217 219 218 218 219 220 222 222 220 222 223 224 223 221 220 219 222 224 227 233 239 241 241 239 237 238 246 253 255 257 258 260 264 267 272 272 273 276 248 237 265 273 261 236 237 251 272 288 293 292 292 282 269 260 254
206 208 209 211 212 213 216 218 220 220 219 220 221 223 223 222 222 223 224 224 222 219 219 223 226 228 235 239 239 237 232 229 236 252 261 256 252 252 257 261 261 265 267 265 259 231 218 227 231 222 224 244 258 274 285 291 289 286 278 268 262 256
207 207 208 209 211 213 216 218 219 220 219 220 221 223 224 224 225 224 224 223 222 220 220 223 226 231 236 239 238 234 229 226 235 259 270 252 242 248 262 264 255 252 254 256 250 227 216 217 221 224 232 247 260 284 296 299 296 287 278 270 266 261
208 208 207 207 210 212 214 216 217 217 218 219 221 223 225 225 226 224 223 223 222 221 223 225 228 232 235 240 240 230 224 229 240 259 267 245 239 251 270 268 249 237 239 242 239 228 217 214 213 222 233 239 269 310 315 308 302 293 283 274 269 265
207 207 207 206 207 210 211 212 213 214 215 217 219 222 225 226 226 224 223 224 224 222 225 228 231 233 236 240 242 231 222 229 240 251 260 252 250 259 269 262 240 226 226 224 225 222 213 208 209 218 227 249 291 309 314 310 306 296 286 278 273 269
205 205 204 204 204 205 206 207 208 209 211 214 216 219 222 225 227 228 228 228 228 227 229 232 233 234 236 239 241 238 232 233 239 245 252 254 255 260 261 251 234 220 216 211 211 209 202 206 212 218 230 260 285 301 306 302 300 295 287 279 274 271
203 203 202 201 201 202 202 202 203 205 207 208 210 214 219 222 226 231 233 234 234 236 237 235 234 233 233 237 239 241 240 240 242 242 244 246 246 250 251 243 231 219 215 219 222 216 212 208 208 227 251 273 285 291 293 294 293 292 289 279 271 268
201 200 201 201 201 203 205 204 202 203 205 207 208 209 214 220 224 230 235 238 238 240 242 237 233 231 230 233 235 239 243 244 242 240 240 238 233 237 241 233 222 213 214 225 231 225 222 213 207 229 260 290 302 300 294 293 291 288 286 277 268 267
201 199 200 202 202 203 207 208 206 205 205 206 211 213 216 222 227 231 236 242 243 240 240 237 231 229 228 230 232 237 243 245 240 236 235 232 225 224 228 224 217 215 217 225 231 230 226 221 219 211 99 332 325 329 316 310 311 299 286 276 271 270
201 200 200 203 205 206 208 210 210 212 210 207 212 218 220 224 228 233 237 241 245 241 235 233 230 228 229 230 233 238 243 244 239 234 233 231 224 219 222 223 220 221 223 223 225 227 225 226 225 213 144 58 25 356 315 332 338 319 301 288 278 278
201 202 203 204 207 208 208 209 208 209 211 209 213 217 218 222 225 230 234 234 238 239 233 229 227 228 229 231 234 237 240 240 238 234 233 234 229 224 225 228 227 225 225 226 227 227 224 223 223 222 209 179 201 286 239 324 341 320 320 321 300 299
199 201 205 207 207 208 207 205 204 202 200 202 207 212 215 219 221 223 227 229 233 237 234 229 227 228 229 230 234 236 235 234 234 235 236 238 236 232 229 230 232 231 229 231 231 228 223 219 220 223 222 220 237 260 237 333 9 322 323 326 332 349
197 201 206 208 208 208 208 206 206 205 204 204 205 211 216 220 223 223 224 226 230 237 238 234 229 228 229 230 233 233 230 230 234 237 239 242 242 239 235 233 235 236 236 236 234 230 224 219 217 221 227 229 235 251 265 263 211 264 313 313 333 350
197 200 204 207 208 209 209 209 210 211 214 218 216 216 218 222 226 229 228 228 230 236 242 241 234 229 228 230 233 233 231 234 238 239 240 243 244 242 238 235 235 236 238 237 236 236 230 223 219 218 224 229 235 242 248 239 225 235 246 271 305 324
196 198 201 205 208 210 213 214 214 216 220 226 228 225 221 221 226 231 232 231 233 239 246 249 243 234 230 232 235 237 237 241 243 243 243 244 244 242 238 236 236 236 236 236 237 238 236 232 227 226 229 234 240 244 242 234 232 237 220 209 278 300
195 196 198 203 207 212 217 219 220 220 222 226 228 229 226 220 222 227 230 231 234 242 247 251 250 240 233 233 236 240 243 247 249 247 246 245 244 241 238 236 237 238 238 238 239 237 239 241 237 240 243 239 238 236 222 213 218 227 231 228 249 273
194 195 197 203 207 211 216 220 221 222 223 223 222 224 225 223 221 221 226 229 233 239 244 251 254 246 237 234 235 240 246 250 251 249 246 245 244 241 239 237 235 236 236 237 240 240 240 244 243 244 245 242 240 232 219 215 216 218 222 225 231 260
194 196 198 201 206 210 214 218 220 221 223 223 220 220 222 225 224 222 225 228 231 236 238 243 250 246 239 235 235 238 244 247 247 246 245 246 245 243 241 239 235 235 234 235 239 241 241 244 245 244 242 242 243 238 233 235 234 226 228 230 223 232
197 198 198 200 202 206 211 216 218 220 222 222 220 220 222 225 228 229 231 231 231 232 230 230 237 240 237 236 235 237 242 245 246 246 246 247 246 245 243 239 236 235 233 233 237 241 243 245 247 247 246 243 240 239 239 241 242 238 238 234 224 225
200 199 196 197 198 202 208 215 217 219 221 220 220 221 224 227 230 236 239 237 236 236 231 229 235 240 240 238 238 240 242 245 247 246 247 249 249 248 245 240 236 235 233 233 236 240 242 242 246 247 247 247 243 243 243 242 242 240 235 228 222 218
202 199 195 195 197 200 205 212 216 218 219 219 219 222 226 230 233 239 243 244 245 246 243 240 240 244 244 242 241 241 242 243 245 246 244 248 251 251 248 243 239 237 235 234 235 237 237 238 245 249 249 250 249 246 242 242 244 243 240 239 240 235
206 202 199 199 200 203 207 213 217 219 220 221 221 223 227 232 236 240 243 247 250 254 256 252 248 246 246 247 246 242 241 243 245 247 243 241 246 250 250 245 241 237 233 231 232 235 237 241 249 253 251 250 250 247 244 247 249 248 249 251 255 253
189 201 203 204 207 209 212 215 219 221 221 222 223 225 228 233 236 237 239 245 249 252 256 256 253 249 246 248 250 245 243 242 241 244 243 238 241 245 243 240 236 232 229 229 233 236 239 247 259 261 254 248 251 252 250 250 248 246 250 254 257 258